contact:dominique.lefevre@mio.osupytheas.fr, maurice.libes@osupytheas.fr, didier.mallarino@osupytheas.fr
Project:EMSO http://www.emso-fr.org/EMSO-France
Depth: 2436.0 m
Title:EMSO Ligure Ouest : Data MII capteur MICROCAT
DateTime_Computer,Latitude,Longitude,Temperature,Conductivity,Pressure,DateTime_Instrument
DateTime_Computer,Latitude,Longitude,degC,S m-1,dbar,DateTime_Instrument
2023-02-01T00:02:07Z,42.805,6.029,13.3018,4.60072,2470.553,2023-2-01T02:08:38Z
2023-02-01T00:05:10Z,42.805,6.029,13.3016,4.60069,2470.53,2023-2-01T02:11:41Z
2023-02-01T00:08:13Z,42.805,6.029,13.3017,4.60069,2470.544,2023-2-01T02:14:44Z
2023-02-01T00:11:16Z,42.805,6.029,13.3017,4.60069,2470.553,2023-2-01T02:17:47Z
2023-02-01T00:14:19Z,42.805,6.029,13.3019,4.60072,2470.567,2023-2-01T02:20:50Z
2023-02-01T00:17:22Z,42.805,6.029,13.3019,4.60069,2470.577,2023-2-01T02:23:53Z
2023-02-01T00:20:25Z,42.805,6.029,13.3019,4.60075,2470.53,2023-2-01T02:26:56Z
2023-02-01T00:23:28Z,42.805,6.029,13.3018,4.60071,2470.591,2023-2-01T02:29:59Z
2023-02-01T00:26:31Z,42.805,6.029,13.3014,4.60078,2470.577,2023-2-01T02:33:02Z
2023-02-01T00:29:35Z,42.805,6.029,13.3017,4.60076,2470.553,2023-2-01T02:36:05Z
2023-02-01T00:32:38Z,42.805,6.029,13.3014,4.60074,2470.53,2023-2-01T02:39:09Z
2023-02-01T00:35:41Z,42.805,6.029,13.3015,4.60079,2470.553,2023-2-01T02:42:12Z
2023-02-01T00:38:44Z,42.805,6.029,13.3017,4.60072,2470.6,2023-2-01T02:45:15Z
2023-02-01T00:41:47Z,42.805,6.029,13.3020,4.60072,2470.577,2023-2-01T02:48:18Z
2023-02-01T00:44:50Z,42.805,6.029,13.3019,4.60071,2470.577,2023-2-01T02:51:21Z
2023-02-01T00:47:53Z,42.805,6.029,13.3016,4.60072,2470.553,2023-2-01T02:54:24Z
2023-02-01T00:50:56Z,42.805,6.029,13.3019,4.60070,2470.577,2023-2-01T02:57:27Z
2023-02-01T00:53:59Z,42.805,6.029,13.3015,4.60074,2470.591,2023-2-01T03:00:30Z
2023-02-01T00:57:02Z,42.805,6.029,13.3016,4.60073,2470.577,2023-2-01T03:03:33Z
2023-02-01T01:00:05Z,42.805,6.029,13.3016,4.60072,2470.6,2023-2-01T03:06:36Z
2023-02-01T01:03:08Z,42.805,6.029,13.3016,4.60073,2470.591,2023-2-01T03:09:39Z
2023-02-01T01:06:11Z,42.805,6.029,13.3015,4.60072,2470.577,2023-2-01T03:12:42Z
2023-02-01T01:09:15Z,42.805,6.029,13.3016,4.60072,2470.6,2023-2-01T03:15:46Z
2023-02-01T01:12:18Z,42.805,6.029,13.3015,4.60070,2470.577,2023-2-01T03:18:49Z
2023-02-01T01:15:21Z,42.805,6.029,13.3019,4.60073,2470.6,2023-2-01T03:21:52Z
2023-02-01T01:18:24Z,42.805,6.029,13.3015,4.60076,2470.614,2023-2-01T03:24:55Z
2023-02-01T01:21:27Z,42.805,6.029,13.3015,4.60073,2470.6,2023-2-01T03:27:58Z
2023-02-01T01:24:30Z,42.805,6.029,13.3014,4.60074,2470.637,2023-2-01T03:31:01Z
2023-02-01T01:27:33Z,42.805,6.029,13.3015,4.60075,2470.624,2023-2-01T03:34:04Z
2023-02-01T01:30:36Z,42.805,6.029,13.3015,4.60072,2470.624,2023-2-01T03:37:07Z
2023-02-01T01:33:39Z,42.805,6.029,13.3014,4.60070,2470.624,2023-2-01T03:40:10Z
2023-02-01T01:36:42Z,42.805,6.029,13.3019,4.60079,2470.591,2023-2-01T03:43:13Z
2023-02-01T01:39:45Z,42.805,6.029,13.3015,4.60075,2470.6,2023-2-01T03:46:16Z
2023-02-01T01:42:48Z,42.805,6.029,13.3019,4.60079,2470.61,2023-2-01T03:49:19Z
2023-02-01T01:45:52Z,42.805,6.029,13.3014,4.60075,2470.646,2023-2-01T03:52:23Z
2023-02-01T01:48:55Z,42.805,6.029,13.3015,4.60069,2470.624,2023-2-01T03:55:26Z
2023-02-01T01:51:58Z,42.805,6.029,13.3017,4.60077,2470.624,2023-2-01T03:58:29Z
2023-02-01T01:55:01Z,42.805,6.029,13.3019,4.60072,2470.637,2023-2-01T04:01:32Z
2023-02-01T01:58:04Z,42.805,6.029,13.3016,4.60075,2470.6,2023-2-01T04:04:35Z
2023-02-01T02:01:07Z,42.805,6.029,13.3017,4.60073,2470.646,2023-2-01T04:07:38Z
2023-02-01T02:04:10Z,42.805,6.029,13.3017,4.60070,2470.6,2023-2-01T04:10:41Z
2023-02-01T02:07:13Z,42.805,6.029,13.3016,4.60073,2470.624,2023-2-01T04:13:44Z
2023-02-01T02:10:16Z,42.805,6.029,13.3014,4.60071,2470.624,2023-2-01T04:16:47Z
2023-02-01T02:13:19Z,42.805,6.029,13.3019,4.60075,2470.624,2023-2-01T04:19:50Z
2023-02-01T02:16:22Z,42.805,6.029,13.3014,4.60074,2470.6,2023-2-01T04:22:53Z
2023-02-01T02:19:25Z,42.805,6.029,13.3019,4.60070,2470.661,2023-2-01T04:25:56Z
2023-02-01T02:22:29Z,42.805,6.029,13.3016,4.60070,2470.646,2023-2-01T04:29:00Z
2023-02-01T02:25:32Z,42.805,6.029,13.3017,4.60069,2470.646,2023-2-01T04:32:03Z
2023-02-01T02:28:35Z,42.805,6.029,13.3014,4.60077,2470.646,2023-2-01T04:35:06Z
2023-02-01T02:31:38Z,42.805,6.029,13.3021,4.60074,2470.624,2023-2-01T04:38:09Z
2023-02-01T02:34:41Z,42.805,6.029,13.3019,4.60072,2470.661,2023-2-01T04:41:12Z
2023-02-01T02:37:44Z,42.805,6.029,13.3015,4.60081,2470.624,2023-2-01T04:44:15Z
2023-02-01T02:40:47Z,42.805,6.029,13.3014,4.60072,2470.624,2023-2-01T04:47:18Z
2023-02-01T02:43:50Z,42.805,6.029,13.3019,4.60069,2470.624,2023-2-01T04:50:21Z
2023-02-01T02:46:53Z,42.805,6.029,13.3019,4.60073,2470.661,2023-2-01T04:53:24Z
2023-02-01T02:49:56Z,42.805,6.029,13.3016,4.60076,2470.646,2023-2-01T04:56:27Z
2023-02-01T02:52:59Z,42.805,6.029,13.3016,4.60070,2470.6,2023-2-01T04:59:30Z
2023-02-01T02:56:02Z,42.805,6.029,13.3016,4.60070,2470.67,2023-2-01T05:02:33Z
2023-02-01T02:59:06Z,42.805,6.029,13.3019,4.60074,2470.624,2023-2-01T05:05:37Z
2023-02-01T03:02:09Z,42.805,6.029,13.3020,4.60071,2470.646,2023-2-01T05:08:40Z
2023-02-01T03:05:12Z,42.805,6.029,13.3015,4.60076,2470.646,2023-2-01T05:11:43Z
2023-02-01T03:08:15Z,42.805,6.029,13.3017,4.60075,2470.637,2023-2-01T05:14:46Z
2023-02-01T03:11:18Z,42.805,6.029,13.3014,4.60073,2470.624,2023-2-01T05:17:49Z
2023-02-01T03:14:21Z,42.805,6.029,13.3021,4.60070,2470.646,2023-2-01T05:20:52Z
2023-02-01T03:17:24Z,42.805,6.029,13.3015,4.60073,2470.67,2023-2-01T05:23:55Z
2023-02-01T03:20:27Z,42.805,6.029,13.3016,4.60071,2470.646,2023-2-01T05:26:58Z
2023-02-01T03:23:30Z,42.805,6.029,13.3017,4.60072,2470.624,2023-2-01T05:30:01Z
2023-02-01T03:26:33Z,42.805,6.029,13.3017,4.60080,2470.646,2023-2-01T05:33:04Z
2023-02-01T03:29:36Z,42.805,6.029,13.3016,4.60073,2470.67,2023-2-01T05:36:07Z
2023-02-01T03:32:39Z,42.805,6.029,13.3013,4.60076,2470.661,2023-2-01T05:39:10Z
2023-02-01T03:35:42Z,42.805,6.029,13.3015,4.60074,2470.67,2023-2-01T05:42:13Z
2023-02-01T03:38:46Z,42.805,6.029,13.3016,4.60069,2470.646,2023-2-01T05:45:17Z
2023-02-01T03:41:49Z,42.805,6.029,13.3019,4.60073,2470.646,2023-2-01T05:48:20Z
2023-02-01T03:44:52Z,42.805,6.029,13.3016,4.60074,2470.684,2023-2-01T05:51:23Z
2023-02-01T03:47:55Z,42.805,6.029,13.3014,4.60072,2470.661,2023-2-01T05:54:26Z
2023-02-01T03:50:58Z,42.805,6.029,13.3018,4.60074,2470.67,2023-2-01T05:57:29Z
2023-02-01T03:54:01Z,42.805,6.029,13.3017,4.60078,2470.67,2023-2-01T06:00:32Z
2023-02-01T03:57:04Z,42.805,6.029,13.3019,4.60074,2470.67,2023-2-01T06:03:35Z
2023-02-01T04:00:07Z,42.805,6.029,13.3017,4.60081,2470.67,2023-2-01T06:06:38Z
2023-02-01T04:03:10Z,42.805,6.029,13.3019,4.60089,2470.661,2023-2-01T06:09:41Z
2023-02-01T04:06:13Z,42.805,6.029,13.3015,4.60081,2470.67,2023-2-01T06:12:44Z
2023-02-01T04:09:16Z,42.805,6.029,13.3021,4.60090,2470.684,2023-2-01T06:15:47Z
2023-02-01T04:12:19Z,42.805,6.029,13.3018,4.60085,2470.693,2023-2-01T06:18:51Z
2023-02-01T04:15:23Z,42.805,6.029,13.3016,4.60089,2470.67,2023-2-01T06:21:54Z
2023-02-01T04:18:26Z,42.805,6.029,13.3018,4.60097,2470.693,2023-2-01T06:24:57Z
2023-02-01T04:21:29Z,42.805,6.029,13.3015,4.60088,2470.684,2023-2-01T06:28:00Z
2023-02-01T04:24:32Z,42.805,6.029,13.3014,4.60087,2470.684,2023-2-01T06:31:03Z
2023-02-01T04:27:35Z,42.805,6.029,13.3018,4.60082,2470.67,2023-2-01T06:34:06Z
2023-02-01T04:30:38Z,42.805,6.029,13.3016,4.60084,2470.67,2023-2-01T06:37:09Z
2023-02-01T04:33:41Z,42.805,6.029,13.3019,4.60086,2470.684,2023-2-01T06:40:12Z
2023-02-01T04:36:44Z,42.805,6.029,13.3013,4.60079,2470.684,2023-2-01T06:43:15Z
2023-02-01T04:39:47Z,42.805,6.029,13.3016,4.60084,2470.693,2023-2-01T06:46:18Z
2023-02-01T04:42:50Z,42.805,6.029,13.3014,4.60078,2470.707,2023-2-01T06:49:21Z
2023-02-01T04:45:53Z,42.805,6.029,13.3018,4.60080,2470.684,2023-2-01T06:52:24Z
2023-02-01T04:48:56Z,42.805,6.029,13.3015,4.60078,2470.693,2023-2-01T06:55:27Z
2023-02-01T04:52:00Z,42.805,6.029,13.3015,4.60081,2470.693,2023-2-01T06:58:31Z
2023-02-01T04:55:03Z,42.805,6.029,13.3016,4.60079,2470.693,2023-2-01T07:01:34Z
2023-02-01T04:58:06Z,42.805,6.029,13.3015,4.60085,2470.67,2023-2-01T07:04:37Z
2023-02-01T05:01:09Z,42.805,6.029,13.3014,4.60090,2470.707,2023-2-01T07:07:40Z
2023-02-01T05:04:12Z,42.805,6.029,13.3019,4.60079,2470.693,2023-2-01T07:10:43Z
2023-02-01T05:07:15Z,42.805,6.029,13.3017,4.60097,2470.67,2023-2-01T07:13:46Z
2023-02-01T05:10:18Z,42.805,6.029,13.3020,4.60079,2470.707,2023-2-01T07:16:49Z
2023-02-01T05:13:21Z,42.805,6.029,13.3017,4.60080,2470.67,2023-2-01T07:19:52Z
2023-02-01T05:16:24Z,42.805,6.029,13.3014,4.60087,2470.707,2023-2-01T07:22:55Z
2023-02-01T05:19:27Z,42.805,6.029,13.3013,4.60087,2470.67,2023-2-01T07:25:58Z
2023-02-01T05:22:30Z,42.805,6.029,13.3014,4.60091,2470.684,2023-2-01T07:29:01Z
2023-02-01T05:25:33Z,42.805,6.029,13.3018,4.60092,2470.717,2023-2-01T07:32:05Z
2023-02-01T05:28:37Z,42.805,6.029,13.3016,4.60085,2470.693,2023-2-01T07:35:08Z
2023-02-01T05:31:40Z,42.805,6.029,13.3019,4.60091,2470.703,2023-2-01T07:38:11Z
2023-02-01T05:34:43Z,42.805,6.029,13.3016,4.60097,2470.707,2023-2-01T07:41:14Z
2023-02-01T05:37:46Z,42.805,6.029,13.3014,4.60099,2470.717,2023-2-01T07:44:17Z
2023-02-01T05:40:49Z,42.805,6.029,13.3019,4.60093,2470.73,2023-2-01T07:47:20Z
2023-02-01T05:43:52Z,42.805,6.029,13.3014,4.60089,2470.67,2023-2-01T07:50:23Z
2023-02-01T05:46:55Z,42.805,6.029,13.3019,4.60090,2470.707,2023-2-01T07:53:26Z
2023-02-01T05:49:58Z,42.805,6.029,13.3019,4.60091,2470.717,2023-2-01T07:56:29Z
2023-02-01T05:53:01Z,42.805,6.029,13.3018,4.60079,2470.717,2023-2-01T07:59:32Z
2023-02-01T05:56:04Z,42.805,6.029,13.3019,4.60080,2470.693,2023-2-01T08:02:35Z
2023-02-01T05:59:07Z,42.805,6.029,13.3018,4.60090,2470.693,2023-2-01T08:05:38Z
2023-02-01T06:02:10Z,42.805,6.029,13.3021,4.60089,2470.684,2023-2-01T08:08:41Z
2023-02-01T06:05:13Z,42.805,6.029,13.3016,4.60136,2470.717,2023-2-01T08:11:45Z
2023-02-01T06:08:17Z,42.805,6.029,13.3016,4.60102,2470.693,2023-2-01T08:14:48Z
2023-02-01T06:11:20Z,42.805,6.029,13.3018,4.60105,2470.73,2023-2-01T08:17:51Z
2023-02-01T06:14:23Z,42.805,6.029,13.3019,4.60095,2470.684,2023-2-01T08:20:54Z
2023-02-01T06:17:26Z,42.805,6.029,13.3017,4.60099,2470.693,2023-2-01T08:23:57Z
2023-02-01T06:20:29Z,42.805,6.029,13.3018,4.60089,2470.67,2023-2-01T08:27:00Z
2023-02-01T06:23:32Z,42.805,6.029,13.3018,4.60097,2470.693,2023-2-01T08:30:03Z
2023-02-01T06:26:35Z,42.805,6.029,13.3015,4.60101,2470.73,2023-2-01T08:33:06Z
2023-02-01T06:29:38Z,42.805,6.029,13.3018,4.60096,2470.717,2023-2-01T08:36:09Z
2023-02-01T06:32:41Z,42.805,6.029,13.3015,4.60097,2470.67,2023-2-01T08:39:12Z
2023-02-01T06:35:44Z,42.805,6.029,13.3014,4.60099,2470.707,2023-2-01T08:42:15Z
2023-02-01T06:38:47Z,42.805,6.029,13.3015,4.60094,2470.707,2023-2-01T08:45:18Z
2023-02-01T06:41:50Z,42.805,6.029,13.3019,4.60094,2470.693,2023-2-01T08:48:22Z
2023-02-01T06:44:54Z,42.805,6.029,13.3014,4.60084,2470.67,2023-2-01T08:51:25Z
2023-02-01T06:47:57Z,42.805,6.029,13.3021,4.60130,2470.67,2023-2-01T08:54:28Z
2023-02-01T06:51:00Z,42.805,6.029,13.3018,4.60099,2470.693,2023-2-01T08:57:31Z
2023-02-01T06:54:03Z,42.805,6.029,13.3015,4.60125,2470.717,2023-2-01T09:00:34Z
2023-02-01T06:57:06Z,42.805,6.029,13.3016,4.60093,2470.693,2023-2-01T09:03:37Z
2023-02-01T07:00:09Z,42.805,6.029,13.3019,4.60094,2470.656,2023-2-01T09:06:40Z
2023-02-01T07:03:12Z,42.805,6.029,13.3017,4.60099,2470.67,2023-2-01T09:09:43Z
2023-02-01T07:06:15Z,42.805,6.029,13.3018,4.60094,2470.661,2023-2-01T09:12:46Z
2023-02-01T07:09:18Z,42.805,6.029,13.3018,4.60098,2470.684,2023-2-01T09:15:49Z
2023-02-01T07:12:21Z,42.805,6.029,13.3018,4.60096,2470.646,2023-2-01T09:18:52Z
2023-02-01T07:15:24Z,42.805,6.029,13.3019,4.60098,2470.707,2023-2-01T09:21:55Z
2023-02-01T07:18:27Z,42.805,6.029,13.3018,4.60097,2470.693,2023-2-01T09:24:59Z
2023-02-01T07:21:30Z,42.805,6.029,13.3018,4.60093,2470.67,2023-2-01T09:28:02Z
2023-02-01T07:24:34Z,42.805,6.029,13.3011,4.60096,2470.693,2023-2-01T09:31:05Z
2023-02-01T07:27:37Z,42.805,6.029,13.3018,4.60089,2470.684,2023-2-01T09:34:08Z
2023-02-01T07:30:40Z,42.805,6.029,13.3017,4.60096,2470.684,2023-2-01T09:37:11Z
2023-02-01T07:33:43Z,42.805,6.029,13.3019,4.60094,2470.67,2023-2-01T09:40:14Z
2023-02-01T07:36:46Z,42.805,6.029,13.3017,4.60095,2470.646,2023-2-01T09:43:17Z
2023-02-01T07:39:49Z,42.805,6.029,13.3019,4.60099,2470.67,2023-2-01T09:46:20Z
2023-02-01T07:42:52Z,42.805,6.029,13.3016,4.60102,2470.693,2023-2-01T09:49:23Z
2023-02-01T07:45:55Z,42.805,6.029,13.3018,4.60105,2470.693,2023-2-01T09:52:26Z
2023-02-01T07:48:58Z,42.805,6.029,13.3015,4.60099,2470.67,2023-2-01T09:55:29Z
2023-02-01T07:52:01Z,42.805,6.029,13.3015,4.60113,2470.684,2023-2-01T09:58:32Z
2023-02-01T07:55:04Z,42.805,6.029,13.3016,4.60114,2470.684,2023-2-01T10:01:36Z
2023-02-01T07:58:07Z,42.805,6.029,13.3017,4.60104,2470.684,2023-2-01T10:04:39Z
2023-02-01T08:01:11Z,42.805,6.029,13.3019,4.60107,2470.67,2023-2-01T10:07:42Z
2023-02-01T08:04:14Z,42.805,6.029,13.3014,4.60097,2470.693,2023-2-01T10:10:45Z
2023-02-01T08:07:17Z,42.805,6.029,13.3014,4.60109,2470.661,2023-2-01T10:13:48Z
2023-02-01T08:10:20Z,42.805,6.029,13.3015,4.60152,2470.67,2023-2-01T10:16:51Z
2023-02-01T08:13:23Z,42.805,6.029,13.3017,4.60123,2470.67,2023-2-01T10:19:54Z
2023-02-01T08:16:26Z,42.805,6.029,13.3016,4.60115,2470.646,2023-2-01T10:22:57Z
2023-02-01T08:19:29Z,42.805,6.029,13.3015,4.60147,2470.684,2023-2-01T10:26:00Z
2023-02-01T08:22:32Z,42.805,6.029,13.3016,4.60155,2470.684,2023-2-01T10:29:03Z
2023-02-01T08:25:35Z,42.805,6.029,13.3019,4.60190,2470.693,2023-2-01T10:32:06Z
2023-02-01T08:28:38Z,42.805,6.029,13.3015,4.60184,2470.67,2023-2-01T10:35:09Z
2023-02-01T08:31:41Z,42.805,6.029,13.3017,4.60120,2470.684,2023-2-01T10:38:13Z
2023-02-01T08:34:45Z,42.805,6.029,13.3019,4.60190,2470.707,2023-2-01T10:41:16Z
2023-02-01T08:37:48Z,42.805,6.029,13.3016,4.60176,2470.684,2023-2-01T10:44:19Z
2023-02-01T08:40:51Z,42.805,6.029,13.3020,4.60142,2470.67,2023-2-01T10:47:22Z
2023-02-01T08:43:54Z,42.805,6.029,13.3031,4.60150,2470.661,2023-2-01T10:50:25Z
2023-02-01T08:46:57Z,42.805,6.029,13.3022,4.60158,2470.646,2023-2-01T10:53:28Z
2023-02-01T08:50:00Z,42.805,6.029,13.3019,4.60174,2470.67,2023-2-01T10:56:31Z
2023-02-01T08:53:03Z,42.805,6.029,13.3022,4.60161,2470.67,2023-2-01T10:59:34Z
2023-02-01T08:56:06Z,42.805,6.029,13.3053,4.60126,2470.661,2023-2-01T11:02:37Z
2023-02-01T08:59:09Z,42.805,6.029,13.3083,4.60160,2470.646,2023-2-01T11:05:40Z
2023-02-01T09:02:12Z,42.805,6.029,13.3076,4.60112,2470.646,2023-2-01T11:08:43Z
2023-02-01T09:05:15Z,42.805,6.029,13.3082,4.60110,2470.661,2023-2-01T11:11:47Z
2023-02-01T09:08:18Z,42.805,6.029,13.3076,4.60106,2470.661,2023-2-01T11:14:50Z
2023-02-01T09:11:22Z,42.805,6.029,13.3071,4.60117,2470.637,2023-2-01T11:17:53Z
2023-02-01T09:14:25Z,42.805,6.029,13.3079,4.60125,2470.661,2023-2-01T11:20:56Z
2023-02-01T09:17:28Z,42.805,6.029,13.3084,4.60109,2470.684,2023-2-01T11:23:59Z
2023-02-01T09:20:31Z,42.805,6.029,13.3086,4.60122,2470.624,2023-2-01T11:27:02Z
2023-02-01T09:23:34Z,42.805,6.029,13.3091,4.60129,2470.67,2023-2-01T11:30:05Z
2023-02-01T09:26:37Z,42.805,6.029,13.3091,4.60120,2470.661,2023-2-01T11:33:08Z
2023-02-01T09:29:40Z,42.805,6.029,13.3097,4.60118,2470.646,2023-2-01T11:36:11Z
2023-02-01T09:32:43Z,42.805,6.029,13.3096,4.60123,2470.684,2023-2-01T11:39:14Z
2023-02-01T09:35:46Z,42.805,6.029,13.3102,4.60125,2470.637,2023-2-01T11:42:17Z
2023-02-01T09:38:49Z,42.805,6.029,13.3108,4.60127,2470.684,2023-2-01T11:45:21Z
2023-02-01T09:41:52Z,42.805,6.029,13.3108,4.60139,2470.637,2023-2-01T11:48:24Z
2023-02-01T09:44:56Z,42.805,6.029,13.3108,4.60149,2470.661,2023-2-01T11:51:27Z
2023-02-01T09:47:59Z,42.805,6.029,13.3108,4.60110,2470.661,2023-2-01T11:54:30Z
2023-02-01T09:51:02Z,42.805,6.029,13.3106,4.60127,2470.614,2023-2-01T11:57:33Z
2023-02-01T09:54:05Z,42.805,6.029,13.3106,4.60113,2470.67,2023-2-01T12:00:36Z
2023-02-01T09:57:08Z,42.805,6.029,13.3109,4.60125,2470.661,2023-2-01T12:03:39Z
2023-02-01T10:00:11Z,42.805,6.029,13.3089,4.60109,2470.661,2023-2-01T12:06:42Z
2023-02-01T10:03:14Z,42.805,6.029,13.3093,4.60119,2470.646,2023-2-01T12:09:45Z
2023-02-01T10:06:17Z,42.805,6.029,13.3085,4.60110,2470.646,2023-2-01T12:12:48Z
2023-02-01T10:09:20Z,42.805,6.029,13.3096,4.60100,2470.646,2023-2-01T12:15:51Z
2023-02-01T10:12:23Z,42.805,6.029,13.3096,4.60114,2470.646,2023-2-01T12:18:55Z
2023-02-01T10:15:26Z,42.805,6.029,13.3093,4.60122,2470.637,2023-2-01T12:21:58Z
2023-02-01T10:18:29Z,42.805,6.029,13.3084,4.60121,2470.637,2023-2-01T12:25:01Z
2023-02-01T10:21:33Z,42.805,6.029,13.3088,4.60109,2470.646,2023-2-01T12:28:04Z
2023-02-01T10:24:36Z,42.805,6.029,13.3081,4.60116,2470.637,2023-2-01T12:31:07Z
2023-02-01T10:27:39Z,42.805,6.029,13.3082,4.60112,2470.624,2023-2-01T12:34:10Z
2023-02-01T10:30:42Z,42.805,6.029,13.3088,4.60104,2470.661,2023-2-01T12:37:13Z
2023-02-01T10:33:45Z,42.805,6.029,13.3083,4.60109,2470.624,2023-2-01T12:40:16Z
2023-02-01T10:36:48Z,42.805,6.029,13.3091,4.60102,2470.637,2023-2-01T12:43:19Z
2023-02-01T10:39:51Z,42.805,6.029,13.3089,4.60097,2470.614,2023-2-01T12:46:22Z
2023-02-01T10:42:54Z,42.805,6.029,13.3087,4.60115,2470.637,2023-2-01T12:49:25Z
2023-02-01T10:45:57Z,42.805,6.029,13.3091,4.60105,2470.6,2023-2-01T12:52:29Z
2023-02-01T10:49:00Z,42.805,6.029,13.3093,4.60106,2470.637,2023-2-01T12:55:32Z
2023-02-01T10:52:03Z,42.805,6.029,13.3089,4.60104,2470.661,2023-2-01T12:58:35Z
2023-02-01T10:55:07Z,42.805,6.029,13.3087,4.60096,2470.6,2023-2-01T13:01:38Z
2023-02-01T10:58:10Z,42.805,6.029,13.3100,4.60106,2470.614,2023-2-01T13:04:41Z
2023-02-01T11:01:13Z,42.805,6.029,13.3101,4.60098,2470.6,2023-2-01T13:07:44Z
2023-02-01T11:04:16Z,42.805,6.029,13.3098,4.60104,2470.637,2023-2-01T13:10:47Z
2023-02-01T11:07:19Z,42.805,6.029,13.3089,4.60132,2470.6,2023-2-01T13:13:50Z
2023-02-01T11:10:22Z,42.805,6.029,13.3095,4.60124,2470.637,2023-2-01T13:16:53Z
2023-02-01T11:13:25Z,42.805,6.029,13.3089,4.60114,2470.637,2023-2-01T13:19:56Z
2023-02-01T11:16:28Z,42.805,6.029,13.3099,4.60099,2470.614,2023-2-01T13:22:59Z
2023-02-01T11:19:31Z,42.805,6.029,13.3106,4.60108,2470.637,2023-2-01T13:26:02Z
2023-02-01T11:22:34Z,42.805,6.029,13.3068,4.60099,2470.637,2023-2-01T13:29:06Z
2023-02-01T11:25:37Z,42.805,6.029,13.3091,4.60090,2470.614,2023-2-01T13:32:09Z
2023-02-01T11:28:40Z,42.805,6.029,13.3099,4.60124,2470.661,2023-2-01T13:35:12Z
2023-02-01T11:31:44Z,42.805,6.029,13.3106,4.60117,2470.614,2023-2-01T13:38:15Z
2023-02-01T11:34:47Z,42.805,6.029,13.3083,4.60120,2470.6,2023-2-01T13:41:18Z
2023-02-01T11:37:50Z,42.805,6.029,13.3083,4.60118,2470.614,2023-2-01T13:44:21Z
2023-02-01T11:40:53Z,42.805,6.029,13.3081,4.60107,2470.637,2023-2-01T13:47:24Z
2023-02-01T11:43:56Z,42.805,6.029,13.3086,4.60122,2470.624,2023-2-01T13:50:27Z
2023-02-01T11:46:59Z,42.805,6.029,13.3088,4.60100,2470.6,2023-2-01T13:53:30Z
2023-02-01T11:50:02Z,42.805,6.029,13.3101,4.60103,2470.614,2023-2-01T13:56:33Z
2023-02-01T11:53:05Z,42.805,6.029,13.3101,4.60105,2470.637,2023-2-01T13:59:36Z
2023-02-01T11:56:08Z,42.805,6.029,13.3092,4.60105,2470.637,2023-2-01T14:02:40Z
2023-02-01T11:59:11Z,42.805,6.029,13.3096,4.60102,2470.614,2023-2-01T14:05:43Z
2023-02-01T12:02:14Z,42.805,6.029,13.3092,4.60112,2470.614,2023-2-01T14:08:46Z
2023-02-01T12:05:18Z,42.805,6.029,13.3097,4.60132,2470.6,2023-2-01T14:11:49Z
2023-02-01T12:08:21Z,42.805,6.029,13.3083,4.60107,2470.577,2023-2-01T14:14:52Z
2023-02-01T12:11:24Z,42.805,6.029,13.3091,4.60099,2470.624,2023-2-01T14:17:55Z
2023-02-01T12:14:27Z,42.805,6.029,13.3098,4.60109,2470.6,2023-2-01T14:20:58Z
2023-02-01T12:17:30Z,42.805,6.029,13.3074,4.60113,2470.637,2023-2-01T14:24:01Z
2023-02-01T12:20:33Z,42.805,6.029,13.3083,4.60108,2470.6,2023-2-01T14:27:04Z
2023-02-01T12:23:36Z,42.805,6.029,13.3084,4.60125,2470.614,2023-2-01T14:30:07Z
2023-02-01T12:26:39Z,42.805,6.029,13.3085,4.60108,2470.6,2023-2-01T14:33:10Z
2023-02-01T12:29:42Z,42.805,6.029,13.3084,4.60111,2470.6,2023-2-01T14:36:14Z
2023-02-01T12:32:45Z,42.805,6.029,13.3069,4.60102,2470.614,2023-2-01T14:39:17Z
2023-02-01T12:35:48Z,42.805,6.029,13.3075,4.60112,2470.624,2023-2-01T14:42:20Z
2023-02-01T12:38:51Z,42.805,6.029,13.3069,4.60113,2470.591,2023-2-01T14:45:23Z
2023-02-01T12:41:55Z,42.805,6.029,13.3073,4.60115,2470.624,2023-2-01T14:48:26Z
2023-02-01T12:44:58Z,42.805,6.029,13.3076,4.60114,2470.624,2023-2-01T14:51:29Z
2023-02-01T12:48:01Z,42.805,6.029,13.3098,4.60097,2470.577,2023-2-01T14:54:32Z
2023-02-01T12:51:04Z,42.805,6.029,13.3093,4.60104,2470.614,2023-2-01T14:57:35Z
2023-02-01T12:54:07Z,42.805,6.029,13.3090,4.60099,2470.6,2023-2-01T15:00:38Z
2023-02-01T12:57:10Z,42.805,6.029,13.3086,4.60115,2470.614,2023-2-01T15:03:41Z
2023-02-01T13:00:13Z,42.805,6.029,13.3070,4.60125,2470.614,2023-2-01T15:06:44Z
2023-02-01T13:03:16Z,42.805,6.029,13.3078,4.60138,2470.553,2023-2-01T15:09:48Z
2023-02-01T13:06:19Z,42.805,6.029,13.3083,4.60133,2470.624,2023-2-01T15:12:51Z
2023-02-01T13:09:22Z,42.805,6.029,13.3095,4.60119,2470.6,2023-2-01T15:15:54Z
2023-02-01T13:12:25Z,42.805,6.029,13.3095,4.60120,2470.624,2023-2-01T15:18:57Z
2023-02-01T13:15:28Z,42.805,6.029,13.3072,4.60109,2470.637,2023-2-01T15:22:00Z
2023-02-01T13:18:32Z,42.805,6.029,13.3078,4.60110,2470.614,2023-2-01T15:25:03Z
2023-02-01T13:21:35Z,42.805,6.029,13.3071,4.60110,2470.577,2023-2-01T15:28:06Z
2023-02-01T13:24:38Z,42.805,6.029,13.3069,4.60116,2470.614,2023-2-01T15:31:09Z
2023-02-01T13:27:41Z,42.805,6.029,13.3054,4.60123,2470.567,2023-2-01T15:34:12Z
2023-02-01T13:30:44Z,42.805,6.029,13.3078,4.60113,2470.6,2023-2-01T15:37:15Z
2023-02-01T13:33:47Z,42.805,6.029,13.3063,4.60119,2470.637,2023-2-01T15:40:18Z
2023-02-01T13:36:50Z,42.805,6.029,13.3073,4.60113,2470.637,2023-2-01T15:43:21Z
2023-02-01T13:39:53Z,42.805,6.029,13.3074,4.60123,2470.614,2023-2-01T15:46:25Z
2023-02-01T13:42:56Z,42.805,6.029,13.3076,4.60110,2470.577,2023-2-01T15:49:28Z
2023-02-01T13:45:59Z,42.805,6.029,13.3074,4.60104,2470.637,2023-2-01T15:52:31Z
2023-02-01T13:49:02Z,42.805,6.029,13.3073,4.60122,2470.614,2023-2-01T15:55:34Z
2023-02-01T13:52:06Z,42.805,6.029,13.3071,4.60108,2470.614,2023-2-01T15:58:37Z
2023-02-01T13:55:09Z,42.805,6.029,13.3079,4.60099,2470.6,2023-2-01T16:01:40Z
2023-02-01T13:58:12Z,42.805,6.029,13.3093,4.60102,2470.614,2023-2-01T16:04:43Z
2023-02-01T14:01:15Z,42.805,6.029,13.3078,4.60116,2470.591,2023-2-01T16:07:46Z
2023-02-01T14:04:18Z,42.805,6.029,13.3074,4.60104,2470.577,2023-2-01T16:10:49Z
2023-02-01T14:07:21Z,42.805,6.029,13.3075,4.60127,2470.591,2023-2-01T16:13:52Z
2023-02-01T14:10:24Z,42.805,6.029,13.3067,4.60110,2470.6,2023-2-01T16:16:55Z
2023-02-01T14:13:27Z,42.805,6.029,13.3073,4.60113,2470.661,2023-2-01T16:19:59Z
2023-02-01T14:16:30Z,42.805,6.029,13.3063,4.60112,2470.6,2023-2-01T16:23:02Z
2023-02-01T14:19:33Z,42.805,6.029,13.3064,4.60127,2470.6,2023-2-01T16:26:05Z
2023-02-01T14:22:36Z,42.805,6.029,13.3062,4.60137,2470.6,2023-2-01T16:29:08Z
2023-02-01T14:25:40Z,42.805,6.029,13.3073,4.60112,2470.577,2023-2-01T16:32:11Z
2023-02-01T14:28:43Z,42.805,6.029,13.3070,4.60120,2470.637,2023-2-01T16:35:14Z
2023-02-01T14:31:46Z,42.805,6.029,13.3077,4.60122,2470.6,2023-2-01T16:38:17Z
2023-02-01T14:34:49Z,42.805,6.029,13.3065,4.60119,2470.624,2023-2-01T16:41:20Z
2023-02-01T14:37:52Z,42.805,6.029,13.3085,4.60163,2470.628,2023-2-01T16:44:23Z
2023-02-01T14:40:55Z,42.805,6.029,13.3043,4.60137,2470.637,2023-2-01T16:47:26Z
2023-02-01T14:43:58Z,42.805,6.029,13.3073,4.60135,2470.637,2023-2-01T16:50:29Z
2023-02-01T14:47:01Z,42.805,6.029,13.3057,4.60112,2470.637,2023-2-01T16:53:33Z
2023-02-01T14:50:04Z,42.805,6.029,13.3069,4.60147,2470.6,2023-2-01T16:56:36Z
2023-02-01T14:53:07Z,42.805,6.029,13.3074,4.60143,2470.637,2023-2-01T16:59:39Z
2023-02-01T14:56:10Z,42.805,6.029,13.3048,4.60127,2470.637,2023-2-01T17:02:42Z
2023-02-01T14:59:13Z,42.805,6.029,13.3063,4.60144,2470.624,2023-2-01T17:05:45Z
2023-02-01T15:02:17Z,42.805,6.029,13.3079,4.60125,2470.624,2023-2-01T17:08:48Z
2023-02-01T15:05:20Z,42.805,6.029,13.3094,4.60107,2470.637,2023-2-01T17:11:51Z
2023-02-01T15:08:23Z,42.805,6.029,13.3060,4.60114,2470.646,2023-2-01T17:14:54Z
2023-02-01T15:11:26Z,42.805,6.029,13.3051,4.60110,2470.661,2023-2-01T17:17:57Z
2023-02-01T15:14:29Z,42.805,6.029,13.3073,4.60131,2470.624,2023-2-01T17:21:00Z